Regional Weather Roundup
Issued by NWS

Home | Current Version | Previous Version | Graphics & Text | Print | Product List | Glossary On
Versions: 1 2 3 4 5 6 7 8 9 10 11 12 13 14 15 16 17 18 19 20 21 22 23 24 25 26 27 28 29 30 31 32 33 34 35 36 37 38 39 40 41 42 43 44 45 46 47 48 49 50
000
ASUS44 KMEG 110410
RWRTN
TENNESSEE HOURLY STATE WEATHER ROUNDUP
NATIONAL WEATHER SERVICE MEMPHIS TN
1000 PM CST SUN DEC 10 2017

TNZ002-004-019-021-049-052-054-088>092-110500-
WEST TENNESSEE

CITY           SKY/WX    TMP DP  RH WIND       PRES   REMARKS
MEMPHIS INTL   CLEAR     42  30  62 VRB3      30.19S
NWS MEMPHIS      N/A     43 N/A N/A MISG        N/A
JACKSON        CLEAR     42  30  62 SW7       30.18S
DYERSBURG      PTCLDY    44  30  57 SW7       30.18R
SOMERVILLE     CLEAR     45  30  57 SW7       30.17S
COVINGTON      CLEAR     39  30  70 SW3       30.19R
UNION CITY     CLEAR     37  28  70 CALM      30.16R
BOLIVAR        CLEAR     43  28  56 S5        30.18S
PARIS          CLEAR     39  27  60 SW8       30.15R WCI  34
HUNTINGDON     CLEAR     45  28  53 SW6       30.16R
LEXINGTON      CLEAR     37  27  65 S6        30.18S WCI  33
SAVANNAH       CLEAR     41  27  56 S6        30.20S
$$

TNZ008-025-027-028-033-062-065-066-110500-
NORTH MIDDLE TENNESSEE

CITY           SKY/WX    TMP DP  RH WIND       PRES   REMARKS
NASHVILLE      CLEAR     41  23  48 S5        30.18R
PORTLAND       CLEAR     39  23  52 S7        30.15R WCI  34
CLARKSVILLE    CLEAR     42  22  44 SW8       30.15R
SMYRNA         CLEAR     33  22  63 SE5       30.19S WCI  29
COOKEVILLE     CLEAR     28  23  80 S3        30.18R
GALLATIN       CLEAR     37  23  56 CALM      30.19S
CROSSVILLE     CLEAR     35  18  49 W6        30.17R WCI  30
$$

TNZ061-075-076-078-094-096-097-110500-
SOUTH MIDDLE TENNESSEE

CITY           SKY/WX    TMP DP  RH WIND       PRES   REMARKS
FAYETTEVILLE   CLEAR     37  23  56 S8        30.20S WCI  31
TULLAHOMA      CLEAR     37  21  52 S3        30.19S
WINCHESTER     CLEAR     39  23  52 W6        30.21S WCI  35
MCMINNVILLE    CLEAR     36  21  55 SW6       30.19S WCI  31
COLUMBIA       CLEAR     39  23  52 SW9       30.18R WCI  33
SHELBYVILLE    CLEAR     36  23  60 S5        30.20S WCI  32
$$

TNZ017-018-042-046-047-110500-
NORTHEAST TENNESSEE

CITY           SKY/WX    TMP DP  RH WIND       PRES   REMARKS
TRI CITIES     MOCLDY    26  20  77 CALM      30.17R
ELIZABETHTON   CLEAR     23  21  93 CALM      30.18R
$$

TNZ012-013-036-069-073-074-110500-
CENTRAL EAST TENNESSEE

CITY           SKY/WX    TMP DP  RH WIND       PRES   REMARKS
KNOXVILLE      PTCLDY    35  25  66 SW14      30.19R WCI  26
OAK RIDGE      CLEAR     33  23  66 W3        30.22R
DOWNTOWN KNOXV CLEAR     37  23  56 W9        30.21S WCI  31
GATLINBURG     PTCLDY    28  25  86 NE6       30.19S WCI  22
MORRISTOWN     CLEAR     36  21  55 W10G16    30.17R WCI  28
JACKSBORO      CLEAR     32  23  69 CALM      30.20R
$$

TNZ083-085-099-110500-
SOUTHEAST TENNESSEE

CITY           SKY/WX    TMP DP  RH WIND       PRES   REMARKS
CHATTANOOGA    CLEAR     37  23  56 S3        30.24R
DAYTON         CLOUDY    32  27  80 CALM      30.22R
$$

SKY/WX REPORTED AS FAIR MEANS FEW OR NO CLOUDS BELOW
12 THOUSAND FEET.





USA.gov is the U.S. government's official web portal to all federal, state and local government web resources and services.